EW2961 Weather Reports


time (UTC)temp
C
wind
direction
speed
KPH
gust
KPH
rain 1hr
cm
rain 24hr
cm
rain mn
cm
humidity
%
barometer
mb
20260505230003 11 10 9.7 24.1 0.00 0.00 0.00 73 1008.1
20260505224503 11 16 8.0 24.1 0.00 0.00 0.00 74 1007.6
20260505223003 11 4 9.7 27.4 0.00 0.00 0.00 73 1007.7
20260505221504 12 16 8.0 25.7 0.00 0.00 0.00 74 1007.2
20260505220003 12 14 6.4 22.5 0.00 0.00 0.00 76 1007.3
20260505214504 12 23 8.0 20.9 0.00 0.00 0.00 76 1007.2
20260505213003 12 15 9.7 24.1 0.00 0.00 0.00 75 1007.5
20260505211503 12 12 8.0 27.4 0.00 0.00 0.00 76 1007.2
20260505210004 12 13 6.4 17.7 0.00 0.00 0.00 79 1006.6
20260505204503 12 2 12.9 30.6 0.00 0.00 0.00 79 1007.0
20260505203003 12 2 9.7 24.1 0.00 0.00 0.00 80 1007.2
20260505201503 13 12 8.0 24.1 0.00 0.00 0.00 79 1006.7
20260505200218 13 9 8.0 27.4 0.00 0.00 0.00 80 1006.6
20260505194503 13 4 9.7 22.5 0.00 0.00 0.00 81 1006.7
20260505193003 13 15 6.4 20.9 0.00 0.00 0.00 81 1006.7
20260505191503 13 22 6.4 20.9 0.00 0.00 0.00 83 1006.2
20260505190218 13 5 9.7 27.4 0.00 0.00 0.00 82 1006.1
20260505184503 13 1 6.4 25.7 0.00 0.00 0.00 83 1006.2
20260505183218 13 6 8.0 25.7 0.00 0.00 0.00 84 1006.0
20260505181717 13 360 8.0 25.7 0.00 0.00 0.00 85 1006.2
20260505180004 13 2 8.0 22.5 0.00 0.00 0.00 86 1006.1
20260505174718 13 11 9.7 22.5 0.00 0.00 0.00 86 1005.0
20260505173003 13 11 9.7 27.4 0.00 0.00 0.00 86 1005.4
20260505171503 13 16 8.0 29.0 0.00 0.00 0.00 87 1005.4
20260505170003 14 3 6.4 17.7 0.00 0.00 0.00 87 1004.7
20260505164504 14 5 9.7 24.1 0.00 0.00 0.00 87 1004.4
20260505163003 15 14 8.0 24.1 0.00 0.00 0.00 86 1004.3
20260505161504 15 2 6.4 24.1 0.00 0.00 0.00 86 1004.3
20260505153003 18 360 4.8 22.5 0.00 0.00 0.00 83 1003.2
20260505151717 20 4 4.8 17.7 0.00 0.00 0.00 82 1003.2
20260505140218 20 128 3.2 12.9 0.00 0.00 0.00 83 1002.1
20260505124718 18 67 1.6 9.7 0.00 0.00 0.00 85 1002.8
20260505123003 18 91 1.6 12.9 0.00 0.00 0.00 86 1002.5
20260505121503 18 84 3.2 14.5 0.00 0.00 0.00 86 1002.3
20260505120004 18 86 1.6 16.1 0.00 0.00 0.00 86 1002.3
20260505114504 18 82 3.2 11.3 0.00 0.00 0.00 86 1002.0
20260505113217 18 68 1.6 8.0 0.00 0.00 0.00 86 1002.2
20260505111718 18 87 1.6 11.3 0.00 0.00 0.00 86 1002.1
20260505101503 18 82 3.2 14.5 0.00 0.00 0.00 86 1001.2
20260505100003 18 74 3.2 12.9 0.00 0.00 0.00 86 1001.0
20260505094504 18 91 3.2 14.5 0.00 0.00 0.00 86 1000.9
20260505093003 18 82 3.2 12.9 0.00 0.00 0.00 85 1001.0
20260505091503 18 87 1.6 11.3 0.00 0.00 0.00 84 1001.1
20260505090004 19 84 3.2 12.9 0.00 0.00 0.00 82 1001.2
20260505084503 19 72 3.2 14.5 0.00 0.00 0.00 81 1001.2
20260505083003 20 80 3.2 8.0 0.00 0.00 0.00 80 1001.2
20260505081503 20 79 3.2 11.3 0.00 0.00 0.00 79 1001.4
20260505080218 20 102 1.6 11.3 0.00 0.00 0.00 79 1001.4
20260505074504 20 90 1.6 6.4 0.00 0.00 0.00 79 1001.7
20260505073003 20 91 1.6 9.7 0.00 0.00 0.00 78 1002.0
20260505071503 20 74 0.0 8.0 0.00 0.00 0.00 79 1002.1
20260505070217 20 74 0.0 4.8 0.00 0.00 0.00 79 1002.0
20260505064503 20 0 0.0 0.0 0.00 0.00 0.00 79 1002.5
20260505063003 20 304 0.0 4.8 0.00 0.00 0.00 79 1002.5
20260505061503 20 176 0.0 3.2 0.00 0.00 0.00 79 1002.1
20260505060003 20 177 0.0 9.7 0.00 0.00 0.00 78 1001.5
20260505054718 20 185 0.0 8.0 0.00 0.00 0.00 78 1001.4
20260505053217 20 182 1.6 12.9 0.00 0.00 0.00 77 1001.6
20260505051504 20 176 1.6 6.4 0.00 0.00 0.00 77 1001.8
20260505041503 20 169 1.6 12.9 0.00 0.00 0.00 74 1001.8
20260505040004 20 146 3.2 14.5 0.00 0.00 0.00 73 1002.1
20260505034504 20 158 4.8 25.7 0.00 0.00 0.00 70 1002.2
20260505033003 20 164 3.2 14.5 0.00 0.00 0.00 70 1002.5
20260505031503 20 167 1.6 11.3 0.00 0.00 0.00 69 1002.5
20260505030218 21 143 1.6 12.9 0.00 0.00 0.00 68 1002.8
20260505024503 21 169 1.6 11.3 0.00 0.00 0.00 66 1002.8
20260505023004 21 158 1.6 11.3 0.00 0.00 0.00 65 1002.9
20260505021503 21 166 3.2 14.5 0.00 0.00 0.00 65 1002.7
20260505020217 22 165 3.2 17.7 0.00 0.00 0.00 64 1002.9
20260505014504 22 151 3.2 11.3 0.00 0.00 0.00 63 1002.7
20260505013003 22 177 1.6 6.4 0.00 0.00 0.00 63 1002.8
20260505011718 23 179 1.6 9.7 0.00 0.00 0.00 61 1002.7
20260505010003 23 169 4.8 11.3 0.00 0.00 0.00 60 1002.6
20260505004503 23 176 3.2 16.1 0.00 0.00 0.00 59 1002.6
20260505003003 24 172 1.6 14.5 0.00 0.00 0.00 59 1002.7
20260505001718 25 185 1.6 8.0 0.00 0.00 0.00 58 1002.8
20260505000003 25 166 3.2 14.5 0.00 0.00 0.00 56 1003.0
20260504234718 25 168 1.6 9.7 0.00 0.00 0.00 57 1003.0
20260504233004 25 175 3.2 11.3 0.00 0.00 0.00 55 1003.0
20260504231503 26 163 4.8 19.3 0.00 0.00 0.00 54 1003.1